Location: Arcusa
(42.3167°N, 0.0833°W)
Time: 05:03:32
(UTC+00:00)

Cosmos 1825 Rocket - Pass Details

Date: 25 January 2020
Orbit: 604 x 630 km, 82.5° (Epoch: 26 February)

Event Time Altitude Azimuth Distance (km) Brightness Sun altitude
Exits shadow 04:49:26 51° 104° (ESE) 768 4.3 -27.9°
Drops below altitude 10° 04:53:14 10° 157° (SSE) 1,961 6.4 -27.2°
Sets 04:55:29 0° 162° (SSE) 2,865 7.2 -26.8°
